COSMOS 1275 DEB

Satellite information

Favourite Embed

Satellite Type and Status

DEBRISIN ORBIT

Key statistics

Satellite COSMOS 1275 DEB at a glance.

Uptime

16210

Days in orbit

Revolutions

≈ 14.2

Per day

Orbit

LEO

Low Earth Orbit

Inclination

82.9

Latest

Satellite identification and parameters

Extended collection of information and parameters for COSMOS 1275 DEB.

Object identification

Identified? True

Debris? True

Object name: COSMOS 1275 DEB

International designator: 1981-053EU

Object number (NORAD): 13022

Object ID (CCSDS): 13022

Country: COMMONWEALTH OF INDEPENDENT STATES (CIS)

Current information (Y/N): Y

RCS size: SMALL

Orbital parameters

Period: 101.432 minutes

Inclination: 82.9121 deg

SMA: 7204.603 km

Apoapsis: 857.946 km

Periapsis: 794.99 km

RAAN: 93.8038 deg

Eccentricy: 0.00436918

Argument of periapsis: 4.3885 deg

Mean anomaly: 154.4924 deg

Mean motion: 14.19670843 rev/day

Mean motion (dot): 0.00002187 rev/day2

B* drag term: 0.0010178045 1/REarth

Two-line elements (TLE)

Creation date: Oct. 21, 2025, 3:26 a.m.

Reference frame: TEME

Reference center: EARTH

Epoch: Oct. 20, 2025, 9:10 p.m. UTC

TLE line 0: 0 COSMOS 1275 DEB

TLE line 1: 1 13022U 81053EU 25293.88221007 .00002187 00000-0 10178-2 0 9991

TLE line 2: 2 13022 82.9121 93.8038 0043692 4.3885 154.4924 14.19670843251488

Live tracking on map

Real-time ground track for satellite COSMOS 1275 DEB.

In-orbit conjunctions

A list of the most updated potential collisions computed for object COSMOS 1275 DEB.

Target Orbit TCA Probability of collision Miss distance Type
CZ-6A DEB SSO 2025-08-31 11:17:51 0.0001230065 227.0 (m) DEBRIS
DMSP 5D-2 F13 DEB SSO 2025-03-12 09:54:48 0.0003703265 59.0 (m) DEBRIS
NOAA 16 DEB SSO 2025-02-10 18:15:45 0.0002661523 70.0 (m) DEBRIS
CZ-6A DEB SSO 2025-01-30 15:47:58 0.0001752219 388.0 (m) DEBRIS
FENGYUN 1C DEB * SSO 2024-11-15 07:33:55 0.0001092326 154.0 (m) DEBRIS

Associated space launch

Navigation satellite providing location information for the Tsiklon-B navigation system

COSMOS 1275 DEB was lifted into orbit during the mission ‘Kosmos-3M | Parus 27’, on board a Kosmos-3M space rocket.

The launch took place on June 4, 1981, 3:41 p.m. from 132/2.

For more information about the launch, click the button.

Launch to space Kosmos-3M | Parus 27
Kosmos-3M | Parus 27

Agency: N/A

Status: Launch Successful

Launch date: June 4, 1981, 3:41 p.m. UTC

Rocket: Kosmos-3M

Launch pad: 132/2

Location: Plesetsk Cosmodrome, Russian Federation

...

Latest news about this satellite

There are no fresh news available about this satellite. Check back as we update our databases every day.


Newsletter sign-up

Weekly statistics, charts and insights to help you stay on top of the space industry.